Year,Month,Day,Hour,Minute,Value (Times are PST for temperature in C)
2018,04,02,00,00,4.30
2018,04,02,00,01,4.30
2018,04,02,00,02,4.30
2018,04,02,00,03,4.20
2018,04,02,00,04,4.20
2018,04,02,00,05,4.20
2018,04,02,00,06,4.20
2018,04,02,00,07,4.20
2018,04,02,00,08,4.20
2018,04,02,00,09,4.20
2018,04,02,00,10,4.20
2018,04,02,00,11,4.20
2018,04,02,00,12,4.20
2018,04,02,00,13,4.20
2018,04,02,00,14,4.20
2018,04,02,00,15,4.20
2018,04,02,00,16,4.20
2018,04,02,00,17,4.20
2018,04,02,00,18,4.20
2018,04,02,00,19,4.20
2018,04,02,00,20,4.20
2018,04,02,00,21,4.20
2018,04,02,00,22,4.10
2018,04,02,00,23,4.10
2018,04,02,00,24,4.00
2018,04,02,00,25,4.00
2018,04,02,00,26,3.90
2018,04,02,00,27,3.80
2018,04,02,00,28,3.70
2018,04,02,00,29,3.70
2018,04,02,00,30,3.70
2018,04,02,00,31,3.60
2018,04,02,00,32,3.60
2018,04,02,00,33,3.60
2018,04,02,00,34,3.50
2018,04,02,00,35,3.50
2018,04,02,00,36,3.40
2018,04,02,00,37,3.40
2018,04,02,00,38,3.30
2018,04,02,00,39,3.30
2018,04,02,00,40,3.30
2018,04,02,00,41,3.30
2018,04,02,00,42,3.20
2018,04,02,00,43,3.20
2018,04,02,00,44,3.20
2018,04,02,00,45,3.20
2018,04,02,00,46,3.20
2018,04,02,00,47,3.20
2018,04,02,00,48,3.20
2018,04,02,00,49,3.20
2018,04,02,00,50,3.20
2018,04,02,00,51,3.30
2018,04,02,00,52,3.30
2018,04,02,00,53,3.30
2018,04,02,00,54,3.30
2018,04,02,00,55,3.30
2018,04,02,00,56,3.30
2018,04,02,00,57,3.40
2018,04,02,00,58,3.40
2018,04,02,00,59,3.40
2018,04,02,01,00,3.50
2018,04,02,01,01,3.50
2018,04,02,01,02,3.60
2018,04,02,01,03,3.60
2018,04,02,01,04,3.60
2018,04,02,01,05,3.60
2018,04,02,01,06,3.70
2018,04,02,01,07,3.70
2018,04,02,01,08,3.80
2018,04,02,01,09,3.80
2018,04,02,01,10,3.90
2018,04,02,01,11,4.00
2018,04,02,01,12,4.10
2018,04,02,01,13,4.10
2018,04,02,01,14,4.10
2018,04,02,01,15,4.20
2018,04,02,01,16,4.20
2018,04,02,01,17,4.20
2018,04,02,01,18,4.30
2018,04,02,01,19,4.30
2018,04,02,01,20,4.30
2018,04,02,01,21,4.30
2018,04,02,01,22,4.30
2018,04,02,01,23,4.40
2018,04,02,01,24,4.40
2018,04,02,01,25,4.40
2018,04,02,01,26,4.40
2018,04,02,01,27,4.40
2018,04,02,01,28,4.40
2018,04,02,01,29,4.40
2018,04,02,01,30,4.40
2018,04,02,01,31,4.40
2018,04,02,01,32,4.40
2018,04,02,01,33,4.40
2018,04,02,01,34,4.40
2018,04,02,01,35,4.40
2018,04,02,01,36,4.40
2018,04,02,01,37,4.40
2018,04,02,01,38,4.40
2018,04,02,01,39,4.40
2018,04,02,01,40,4.40
2018,04,02,01,41,4.40
2018,04,02,01,42,4.40
2018,04,02,01,43,4.40
2018,04,02,01,44,4.40
2018,04,02,01,45,4.40
2018,04,02,01,46,4.40
2018,04,02,01,47,4.40
2018,04,02,01,48,4.40
2018,04,02,01,49,4.40
2018,04,02,01,50,4.40
2018,04,02,01,51,4.40
2018,04,02,01,52,4.40
2018,04,02,01,53,4.40
2018,04,02,01,54,4.40
2018,04,02,01,55,4.40
2018,04,02,01,56,4.40
2018,04,02,01,57,4.40
2018,04,02,01,58,4.40
2018,04,02,01,59,4.40
2018,04,02,02,00,4.40
2018,04,02,02,01,4.30
2018,04,02,02,02,4.30
2018,04,02,02,03,4.30
2018,04,02,02,04,4.30
2018,04,02,02,05,4.30
2018,04,02,02,06,4.30
2018,04,02,02,07,4.30
2018,04,02,02,08,4.30
2018,04,02,02,09,4.30
2018,04,02,02,10,4.30
2018,04,02,02,11,4.30
2018,04,02,02,12,4.30
2018,04,02,02,13,4.30
2018,04,02,02,14,4.30
2018,04,02,02,15,4.30
2018,04,02,02,16,4.30
2018,04,02,02,17,4.20
2018,04,02,02,18,4.20
2018,04,02,02,19,4.20
2018,04,02,02,20,4.20
2018,04,02,02,21,4.20
2018,04,02,02,22,4.20
2018,04,02,02,23,4.20
2018,04,02,02,24,4.20
2018,04,02,02,25,4.20
2018,04,02,02,26,4.20
2018,04,02,02,27,4.20
2018,04,02,02,28,4.20
2018,04,02,02,29,4.10
2018,04,02,02,30,4.10
2018,04,02,02,31,4.10
2018,04,02,02,32,4.10
2018,04,02,02,33,4.10
2018,04,02,02,34,4.10
2018,04,02,02,35,4.10
2018,04,02,02,36,4.20
2018,04,02,02,37,4.10
2018,04,02,02,38,4.10
2018,04,02,02,39,4.10
2018,04,02,02,40,4.10
2018,04,02,02,41,4.10
2018,04,02,02,42,4.10
2018,04,02,02,43,4.10
2018,04,02,02,44,4.10
2018,04,02,02,45,4.10
2018,04,02,02,46,4.10
2018,04,02,02,47,4.10
2018,04,02,02,48,4.10
2018,04,02,02,49,4.10
2018,04,02,02,50,4.10
2018,04,02,02,51,4.10
2018,04,02,02,52,4.00
2018,04,02,02,53,4.00
2018,04,02,02,54,4.00
2018,04,02,02,55,4.00
2018,04,02,02,56,4.00
2018,04,02,02,57,3.90
2018,04,02,02,58,3.90
2018,04,02,02,59,3.90
2018,04,02,03,00,3.90
2018,04,02,03,01,3.90
2018,04,02,03,02,3.90
2018,04,02,03,03,3.80
2018,04,02,03,04,3.80
2018,04,02,03,05,3.80
2018,04,02,03,06,3.80
2018,04,02,03,07,3.70
2018,04,02,03,08,3.70
2018,04,02,03,09,3.70
2018,04,02,03,10,3.70
2018,04,02,03,11,3.60
2018,04,02,03,12,3.60
2018,04,02,03,13,3.60
2018,04,02,03,14,3.60
2018,04,02,03,15,3.60
2018,04,02,03,16,3.60
2018,04,02,03,17,3.50
2018,04,02,03,18,3.50
2018,04,02,03,19,3.50
2018,04,02,03,20,3.50
2018,04,02,03,21,3.50
2018,04,02,03,22,3.50
2018,04,02,03,23,3.50
2018,04,02,03,24,3.50
2018,04,02,03,25,3.60
2018,04,02,03,26,3.60
2018,04,02,03,27,3.60
2018,04,02,03,28,3.60
2018,04,02,03,29,3.60
2018,04,02,03,30,3.60
2018,04,02,03,31,3.60
2018,04,02,03,32,3.70
2018,04,02,03,33,3.70
2018,04,02,03,34,3.70
2018,04,02,03,35,3.80
2018,04,02,03,36,3.80
2018,04,02,03,37,3.80
2018,04,02,03,38,3.80
2018,04,02,03,39,3.80
2018,04,02,03,40,3.80
2018,04,02,03,41,3.80
2018,04,02,03,42,3.80
2018,04,02,03,43,3.80
2018,04,02,03,44,3.70
2018,04,02,03,45,3.70
2018,04,02,03,46,3.60
2018,04,02,03,47,3.60
2018,04,02,03,48,3.60
2018,04,02,03,49,3.60
2018,04,02,03,50,3.60
2018,04,02,03,51,3.70
2018,04,02,03,52,3.70
2018,04,02,03,53,3.80
2018,04,02,03,54,3.80
2018,04,02,03,55,3.80
2018,04,02,03,56,3.80
2018,04,02,03,57,3.80
2018,04,02,03,58,3.80
2018,04,02,03,59,3.80
2018,04,02,04,00,3.80
2018,04,02,04,01,3.80
2018,04,02,04,02,3.80
2018,04,02,04,03,3.80
2018,04,02,04,04,3.80
2018,04,02,04,05,3.80
2018,04,02,04,06,3.80
2018,04,02,04,07,3.80
2018,04,02,04,08,3.80
2018,04,02,04,09,3.80
2018,04,02,04,10,3.80
2018,04,02,04,11,3.80
2018,04,02,04,12,3.70
2018,04,02,04,13,3.70
2018,04,02,04,14,3.80
2018,04,02,04,15,3.80
2018,04,02,04,16,3.80
2018,04,02,04,17,3.80
2018,04,02,04,18,3.80
2018,04,02,04,19,3.80
2018,04,02,04,20,3.80
2018,04,02,04,21,3.80
2018,04,02,04,22,3.80
2018,04,02,04,23,3.90
2018,04,02,04,24,3.90
2018,04,02,04,25,3.90
2018,04,02,04,26,3.90
2018,04,02,04,27,3.90
2018,04,02,04,28,3.90
2018,04,02,04,29,3.90
2018,04,02,04,30,3.90
2018,04,02,04,31,3.90
2018,04,02,04,32,3.90
2018,04,02,04,33,3.90
2018,04,02,04,34,3.90
2018,04,02,04,35,3.90
2018,04,02,04,36,3.90
2018,04,02,04,37,3.90
2018,04,02,04,38,3.90
2018,04,02,04,39,3.90
2018,04,02,04,40,3.90
2018,04,02,04,41,3.90
2018,04,02,04,42,3.90
2018,04,02,04,43,3.90
2018,04,02,04,44,3.90
2018,04,02,04,45,3.90
2018,04,02,04,46,3.90
2018,04,02,04,47,3.90
2018,04,02,04,48,3.90
2018,04,02,04,49,3.90
2018,04,02,04,50,3.90
2018,04,02,04,51,3.90
2018,04,02,04,52,3.90
2018,04,02,04,53,3.90
2018,04,02,04,54,3.80
2018,04,02,04,55,3.80
2018,04,02,04,56,3.80
2018,04,02,04,57,3.80
2018,04,02,04,58,3.80
2018,04,02,04,59,3.80
2018,04,02,05,00,3.80
2018,04,02,05,01,3.80
2018,04,02,05,02,3.80
2018,04,02,05,03,3.80
2018,04,02,05,04,3.80
2018,04,02,05,05,3.70
2018,04,02,05,06,3.70
2018,04,02,05,07,3.70
2018,04,02,05,08,3.70
2018,04,02,05,09,3.70
2018,04,02,05,10,3.70
2018,04,02,05,11,3.70
2018,04,02,05,12,3.70
2018,04,02,05,13,3.70
2018,04,02,05,14,3.70
2018,04,02,05,15,3.80
2018,04,02,05,16,3.80
2018,04,02,05,17,3.80
2018,04,02,05,18,3.80
2018,04,02,05,19,3.80
2018,04,02,05,20,3.70
2018,04,02,05,21,3.70
2018,04,02,05,22,3.70
2018,04,02,05,23,3.70
2018,04,02,05,24,3.70
2018,04,02,05,25,3.70
2018,04,02,05,26,3.60
2018,04,02,05,27,3.60
2018,04,02,05,28,3.60
2018,04,02,05,29,3.60
2018,04,02,05,30,3.60
2018,04,02,05,31,3.60
2018,04,02,05,32,3.60
2018,04,02,05,33,3.50
2018,04,02,05,34,3.50
2018,04,02,05,35,3.50
2018,04,02,05,36,3.50
2018,04,02,05,37,3.40
2018,04,02,05,38,3.40
2018,04,02,05,39,3.40
2018,04,02,05,40,3.40
2018,04,02,05,41,3.40
2018,04,02,05,42,3.30
2018,04,02,05,43,3.30
2018,04,02,05,44,3.30
2018,04,02,05,45,3.20
2018,04,02,05,46,3.20
2018,04,02,05,47,3.20
2018,04,02,05,48,3.30
2018,04,02,05,49,3.30
2018,04,02,05,50,3.30
2018,04,02,05,51,3.30
2018,04,02,05,52,3.30
2018,04,02,05,53,3.30
2018,04,02,05,54,3.30
2018,04,02,05,55,3.30
2018,04,02,05,56,3.30
2018,04,02,05,57,3.20
2018,04,02,05,58,3.20
2018,04,02,05,59,3.20
2018,04,02,06,00,3.10
2018,04,02,06,01,3.10
2018,04,02,06,02,3.00
2018,04,02,06,03,3.00
2018,04,02,06,04,2.90
2018,04,02,06,05,2.90
2018,04,02,06,06,2.80
2018,04,02,06,07,2.80
2018,04,02,06,08,2.80
2018,04,02,06,09,2.80
2018,04,02,06,10,2.80
2018,04,02,06,11,2.80
2018,04,02,06,12,2.70
2018,04,02,06,13,2.70
2018,04,02,06,14,2.70
2018,04,02,06,15,2.70
2018,04,02,06,16,2.60
2018,04,02,06,17,2.60
2018,04,02,06,18,2.60
2018,04,02,06,19,2.50
2018,04,02,06,20,2.50
2018,04,02,06,21,2.50
2018,04,02,06,22,2.50
2018,04,02,06,23,2.50
2018,04,02,06,24,2.50
2018,04,02,06,25,2.50
2018,04,02,06,26,2.40
2018,04,02,06,27,2.40
2018,04,02,06,28,2.30
2018,04,02,06,29,2.30
2018,04,02,06,30,2.30
2018,04,02,06,31,2.30
2018,04,02,06,32,2.30
2018,04,02,06,33,2.30
2018,04,02,06,34,2.30
2018,04,02,06,35,2.30
2018,04,02,06,36,2.40
2018,04,02,06,37,2.40
2018,04,02,06,38,2.40
2018,04,02,06,39,2.40
2018,04,02,06,40,2.40
2018,04,02,06,41,2.40
2018,04,02,06,42,2.50
2018,04,02,06,43,2.40
2018,04,02,06,44,2.40
2018,04,02,06,45,2.40
2018,04,02,06,46,2.40
2018,04,02,06,47,2.40
2018,04,02,06,48,2.40
2018,04,02,06,49,2.40
2018,04,02,06,50,2.30
2018,04,02,06,51,2.30
2018,04,02,06,52,2.30
2018,04,02,06,53,2.30
2018,04,02,06,54,2.30
2018,04,02,06,55,2.30
2018,04,02,06,56,2.30
2018,04,02,06,57,2.30
2018,04,02,06,58,2.30
2018,04,02,06,59,2.30
2018,04,02,07,00,2.30
2018,04,02,07,01,2.30
2018,04,02,07,02,2.40
2018,04,02,07,03,2.40
2018,04,02,07,04,2.40
2018,04,02,07,05,2.40
2018,04,02,07,06,2.40
2018,04,02,07,07,2.40
2018,04,02,07,08,2.40
2018,04,02,07,09,2.40
2018,04,02,07,10,2.40
2018,04,02,07,11,2.40
2018,04,02,07,12,2.40
2018,04,02,07,13,2.40
2018,04,02,07,14,2.40
2018,04,02,07,15,2.40
2018,04,02,07,16,2.40
2018,04,02,07,17,2.40
2018,04,02,07,18,2.50
2018,04,02,07,19,2.60
2018,04,02,07,20,2.60
2018,04,02,07,21,2.70
2018,04,02,07,22,2.70
2018,04,02,07,23,2.70
2018,04,02,07,24,2.70
2018,04,02,07,25,2.70
2018,04,02,07,26,2.80
2018,04,02,07,27,2.90
2018,04,02,07,28,3.00
2018,04,02,07,29,3.20
2018,04,02,07,30,3.30
2018,04,02,07,31,3.40
2018,04,02,07,32,3.50
2018,04,02,07,33,3.60
2018,04,02,07,34,3.60
2018,04,02,07,35,3.70
2018,04,02,07,36,3.70
2018,04,02,07,37,3.80
2018,04,02,07,38,3.90
2018,04,02,07,39,3.90
2018,04,02,07,40,4.00
2018,04,02,07,41,4.10
2018,04,02,07,42,4.10
2018,04,02,07,43,4.20
2018,04,02,07,44,4.20
2018,04,02,07,45,4.20
2018,04,02,07,46,4.30
2018,04,02,07,47,4.30
2018,04,02,07,48,4.30
2018,04,02,07,49,4.40
2018,04,02,07,50,4.40
2018,04,02,07,51,4.40
2018,04,02,07,52,4.50
2018,04,02,07,53,4.50
2018,04,02,07,54,4.50
2018,04,02,07,55,4.60
2018,04,02,07,56,4.60
2018,04,02,07,57,4.70
2018,04,02,07,58,4.70
2018,04,02,07,59,4.80
2018,04,02,08,00,4.80
2018,04,02,08,01,4.90
2018,04,02,08,02,4.90
2018,04,02,08,03,4.90
2018,04,02,08,04,4.90
2018,04,02,08,05,4.90
2018,04,02,08,06,4.90
2018,04,02,08,07,4.90
2018,04,02,08,08,5.00
2018,04,02,08,09,5.00
2018,04,02,08,10,5.00
2018,04,02,08,11,5.10
2018,04,02,08,12,5.10
2018,04,02,08,13,5.10
2018,04,02,08,14,5.10
2018,04,02,08,15,5.10
2018,04,02,08,16,5.10
2018,04,02,08,17,5.10
2018,04,02,08,18,5.10
2018,04,02,08,19,5.10
2018,04,02,08,20,5.10
2018,04,02,08,21,5.20
2018,04,02,08,22,5.20
2018,04,02,08,23,5.20
2018,04,02,08,24,5.20
2018,04,02,08,25,5.20
2018,04,02,08,26,5.30
2018,04,02,08,27,5.30
2018,04,02,08,28,5.40
2018,04,02,08,29,5.40
2018,04,02,08,30,5.40
2018,04,02,08,31,5.40
2018,04,02,08,32,5.50
2018,04,02,08,33,5.50
2018,04,02,08,34,5.50
2018,04,02,08,35,5.50
2018,04,02,08,36,5.60
2018,04,02,08,37,5.60
2018,04,02,08,38,5.60
2018,04,02,08,39,5.60
2018,04,02,08,40,5.70
2018,04,02,08,41,5.70
2018,04,02,08,42,5.70
2018,04,02,08,43,5.70
2018,04,02,08,44,5.70
2018,04,02,08,45,5.70
2018,04,02,08,46,5.70
2018,04,02,08,47,5.70
2018,04,02,08,48,5.70
2018,04,02,08,49,5.70
2018,04,02,08,50,5.70
2018,04,02,08,51,5.70
2018,04,02,08,52,5.70
2018,04,02,08,53,5.80
2018,04,02,08,54,5.80
2018,04,02,08,55,5.80
2018,04,02,08,56,5.80
2018,04,02,08,57,5.80
2018,04,02,08,58,5.90
2018,04,02,08,59,5.90
2018,04,02,09,00,5.90
2018,04,02,09,01,5.90
2018,04,02,09,02,5.90
2018,04,02,09,03,6.00
2018,04,02,09,04,6.00
2018,04,02,09,05,6.00
2018,04,02,09,06,6.10
2018,04,02,09,07,6.10
2018,04,02,09,08,6.10
2018,04,02,09,09,6.10
2018,04,02,09,10,6.10
2018,04,02,09,11,6.20
2018,04,02,09,12,6.20
2018,04,02,09,13,6.20
2018,04,02,09,14,6.20
2018,04,02,09,15,6.20
2018,04,02,09,16,6.30
2018,04,02,09,17,6.30
2018,04,02,09,18,6.30
2018,04,02,09,19,6.30
2018,04,02,09,20,6.30
2018,04,02,09,21,6.40
2018,04,02,09,22,6.40
2018,04,02,09,23,6.50
2018,04,02,09,24,6.50
2018,04,02,09,25,6.60
2018,04,02,09,26,6.60
2018,04,02,09,27,6.60
2018,04,02,09,28,6.70
2018,04,02,09,29,6.70
2018,04,02,09,30,6.70
2018,04,02,09,31,6.70
2018,04,02,09,32,6.70
2018,04,02,09,33,6.70
2018,04,02,09,34,6.70
2018,04,02,09,35,6.70
2018,04,02,09,36,6.70
2018,04,02,09,37,6.70
2018,04,02,09,38,6.70
2018,04,02,09,39,6.70
2018,04,02,09,40,6.80
2018,04,02,09,41,6.80
2018,04,02,09,42,6.80
2018,04,02,09,43,6.90
2018,04,02,09,44,6.90
2018,04,02,09,45,6.80
2018,04,02,09,46,6.80
2018,04,02,09,47,6.80
2018,04,02,09,48,6.80
2018,04,02,09,49,6.90
2018,04,02,09,50,6.90
2018,04,02,09,51,7.00
2018,04,02,09,52,7.10
2018,04,02,09,53,7.10
2018,04,02,09,54,7.20
2018,04,02,09,55,7.30
2018,04,02,09,56,7.40
2018,04,02,09,57,7.40
2018,04,02,09,58,7.40
2018,04,02,09,59,7.50
2018,04,02,10,00,7.60
2018,04,02,10,01,7.60
2018,04,02,10,02,7.80
2018,04,02,10,03,7.80
2018,04,02,10,04,7.90
2018,04,02,10,05,8.10
2018,04,02,10,06,8.20
2018,04,02,10,07,8.30
2018,04,02,10,08,8.40
2018,04,02,10,09,8.50
2018,04,02,10,10,8.50
2018,04,02,10,11,8.40
2018,04,02,10,12,8.30
2018,04,02,10,13,8.10
2018,04,02,10,14,8.00
2018,04,02,10,15,7.80
2018,04,02,10,16,7.70
2018,04,02,10,17,7.60
2018,04,02,10,18,7.60
2018,04,02,10,19,7.60
2018,04,02,10,20,7.60
2018,04,02,10,21,7.60
2018,04,02,10,22,7.60
2018,04,02,10,23,7.70
2018,04,02,10,24,7.70
2018,04,02,10,25,7.80
2018,04,02,10,26,7.80
2018,04,02,10,27,7.80
2018,04,02,10,28,7.70
2018,04,02,10,29,7.70
2018,04,02,10,30,7.70
2018,04,02,10,31,7.60
2018,04,02,10,32,7.60
2018,04,02,10,33,7.60
2018,04,02,10,34,7.50
2018,04,02,10,35,7.60
2018,04,02,10,36,7.60
2018,04,02,10,37,7.60
2018,04,02,10,38,7.60
2018,04,02,10,39,7.60
2018,04,02,10,40,7.70
2018,04,02,10,41,7.70
2018,04,02,10,42,7.70
2018,04,02,10,43,7.70
2018,04,02,10,44,7.70
2018,04,02,10,45,7.60
2018,04,02,10,46,7.60
2018,04,02,10,47,7.60
2018,04,02,10,48,7.60
2018,04,02,10,49,7.60
2018,04,02,10,50,7.70
2018,04,02,10,51,7.70
2018,04,02,10,52,7.70
2018,04,02,10,53,7.80
2018,04,02,10,54,7.90
2018,04,02,10,55,7.90
2018,04,02,10,56,8.00
2018,04,02,10,57,8.00
2018,04,02,10,58,8.10
2018,04,02,10,59,8.10
2018,04,02,11,00,8.10
2018,04,02,11,01,7.90
2018,04,02,11,02,7.80
2018,04,02,11,03,7.70
2018,04,02,11,04,7.60
2018,04,02,11,05,7.60
2018,04,02,11,06,7.60
2018,04,02,11,07,7.70
2018,04,02,11,08,7.80
2018,04,02,11,09,7.80
2018,04,02,11,10,7.80
2018,04,02,11,11,7.90
2018,04,02,11,12,7.90
2018,04,02,11,13,7.90
2018,04,02,11,14,7.90
2018,04,02,11,15,8.00
2018,04,02,11,16,8.00
2018,04,02,11,17,8.00
2018,04,02,11,18,8.10
2018,04,02,11,19,8.10
2018,04,02,11,20,8.10
2018,04,02,11,21,8.10
2018,04,02,11,22,8.20
2018,04,02,11,23,8.20
2018,04,02,11,24,8.20
2018,04,02,11,25,8.30
2018,04,02,11,26,8.20
2018,04,02,11,27,8.20
2018,04,02,11,28,8.20
2018,04,02,11,29,8.20
2018,04,02,11,30,8.20
2018,04,02,11,31,8.20
2018,04,02,11,32,8.20
2018,04,02,11,33,8.20
2018,04,02,11,34,8.30
2018,04,02,11,35,8.20
2018,04,02,11,36,8.20
2018,04,02,11,37,8.10
2018,04,02,11,38,8.10
2018,04,02,11,39,8.10
2018,04,02,11,40,8.00
2018,04,02,11,41,8.10
2018,04,02,11,42,8.10
2018,04,02,11,43,8.10
2018,04,02,11,44,8.10
2018,04,02,11,45,8.20
2018,04,02,11,46,8.20
2018,04,02,11,47,8.20
2018,04,02,11,48,8.20
2018,04,02,11,49,8.20
2018,04,02,11,50,8.30
2018,04,02,11,51,8.30
2018,04,02,11,52,8.30
2018,04,02,11,53,8.30
2018,04,02,11,54,8.30
2018,04,02,11,55,8.30
2018,04,02,11,56,8.30
2018,04,02,11,57,8.30
2018,04,02,11,58,8.40
2018,04,02,11,59,8.40
2018,04,02,12,00,8.40
2018,04,02,12,01,8.40
2018,04,02,12,02,8.40
2018,04,02,12,03,8.40
2018,04,02,12,04,8.30
2018,04,02,12,05,8.30
2018,04,02,12,06,8.20
2018,04,02,12,07,8.10
2018,04,02,12,08,8.10
2018,04,02,12,09,8.10
2018,04,02,12,10,8.20
2018,04,02,12,11,8.10
2018,04,02,12,12,8.10
2018,04,02,12,13,8.20
2018,04,02,12,14,8.20
2018,04,02,12,15,8.30
2018,04,02,12,16,8.30
2018,04,02,12,17,8.40
2018,04,02,12,18,8.40
2018,04,02,12,19,8.50
2018,04,02,12,20,8.50
2018,04,02,12,21,8.60
2018,04,02,12,22,8.60
2018,04,02,12,23,8.70
2018,04,02,12,24,8.70
2018,04,02,12,25,8.70
2018,04,02,12,26,8.70
2018,04,02,12,27,8.70
2018,04,02,12,28,8.70
2018,04,02,12,29,8.70
2018,04,02,12,30,8.80
2018,04,02,12,31,8.80
2018,04,02,12,32,8.90
2018,04,02,12,33,8.90
2018,04,02,12,34,8.90
2018,04,02,12,35,8.90
2018,04,02,12,36,8.90
2018,04,02,12,37,9.00
2018,04,02,12,38,9.00
2018,04,02,12,39,9.00
2018,04,02,12,40,9.00
2018,04,02,12,41,9.00
2018,04,02,12,42,9.00
2018,04,02,12,43,9.00
2018,04,02,12,44,9.00
2018,04,02,12,45,8.90
2018,04,02,12,46,8.90
2018,04,02,12,47,8.90
2018,04,02,12,48,8.80
2018,04,02,12,49,8.90
2018,04,02,12,50,8.90
2018,04,02,12,51,8.80
2018,04,02,12,52,8.80
2018,04,02,12,53,8.80
2018,04,02,12,54,8.80
2018,04,02,12,55,8.90
2018,04,02,12,56,8.90
2018,04,02,12,57,8.90
2018,04,02,12,58,9.00
2018,04,02,12,59,9.00
2018,04,02,13,00,9.00
2018,04,02,13,01,9.00
2018,04,02,13,02,8.90
2018,04,02,13,03,8.90
2018,04,02,13,04,8.80
2018,04,02,13,05,8.80
2018,04,02,13,06,8.80
2018,04,02,13,07,8.80
2018,04,02,13,08,8.90
2018,04,02,13,09,8.90
2018,04,02,13,10,9.00
2018,04,02,13,11,9.00
2018,04,02,13,12,9.10
2018,04,02,13,13,9.10
2018,04,02,13,14,9.10
2018,04,02,13,15,9.10
2018,04,02,13,16,9.10
2018,04,02,13,17,9.10
2018,04,02,13,18,9.10
2018,04,02,13,19,9.00
2018,04,02,13,20,9.00
2018,04,02,13,21,9.00
2018,04,02,13,22,9.00
2018,04,02,13,23,9.00
2018,04,02,13,24,9.00
2018,04,02,13,25,9.00
2018,04,02,13,26,8.90
2018,04,02,13,27,9.00
2018,04,02,13,28,9.00
2018,04,02,13,29,9.00
2018,04,02,13,30,9.10
2018,04,02,13,31,9.20
2018,04,02,13,32,9.20
2018,04,02,13,33,9.20
2018,04,02,13,34,9.30
2018,04,02,13,35,9.30
2018,04,02,13,36,9.40
2018,04,02,13,37,9.50
2018,04,02,13,38,9.60
2018,04,02,13,39,9.60
2018,04,02,13,40,9.60
2018,04,02,13,41,9.50
2018,04,02,13,42,9.50
2018,04,02,13,43,9.50
2018,04,02,13,44,9.50
2018,04,02,13,45,9.50
2018,04,02,13,46,9.60
2018,04,02,13,47,9.60
2018,04,02,13,48,9.60
2018,04,02,13,49,9.70
2018,04,02,13,50,9.70
2018,04,02,13,51,9.60
2018,04,02,13,52,9.50
2018,04,02,13,53,9.50
2018,04,02,13,54,9.50
2018,04,02,13,55,9.60
2018,04,02,13,56,9.50
2018,04,02,13,57,9.50
2018,04,02,13,58,9.50
2018,04,02,13,59,9.60
2018,04,02,14,00,9.50
2018,04,02,14,01,9.40
2018,04,02,14,02,9.50
2018,04,02,14,03,9.50
2018,04,02,14,04,9.50
2018,04,02,14,05,9.60
2018,04,02,14,06,9.60
2018,04,02,14,07,9.50
2018,04,02,14,08,9.50
2018,04,02,14,09,9.60
2018,04,02,14,10,9.60
2018,04,02,14,11,9.60
2018,04,02,14,12,9.60
2018,04,02,14,13,9.60
2018,04,02,14,14,9.60
2018,04,02,14,15,9.50
2018,04,02,14,16,9.50
2018,04,02,14,17,9.50
2018,04,02,14,18,9.50
2018,04,02,14,19,9.60
2018,04,02,14,20,9.60
2018,04,02,14,21,9.70
2018,04,02,14,22,9.70
2018,04,02,14,23,9.70
2018,04,02,14,24,9.70
2018,04,02,14,25,9.70
2018,04,02,14,26,9.70
2018,04,02,14,27,9.70
2018,04,02,14,28,9.70
2018,04,02,14,29,9.80
2018,04,02,14,30,9.90
2018,04,02,14,31,10.00
2018,04,02,14,32,10.00
2018,04,02,14,33,9.80
2018,04,02,14,34,9.80
2018,04,02,14,35,9.80
2018,04,02,14,36,9.80
2018,04,02,14,37,9.80
2018,04,02,14,38,9.80
2018,04,02,14,39,9.80
2018,04,02,14,40,9.70
2018,04,02,14,41,9.70
2018,04,02,14,42,9.70
2018,04,02,14,43,9.70
2018,04,02,14,44,9.80
2018,04,02,14,45,9.90
2018,04,02,14,46,9.90
2018,04,02,14,47,9.90
2018,04,02,14,48,9.90
2018,04,02,14,49,10.00
2018,04,02,14,50,10.00
2018,04,02,14,51,9.90
2018,04,02,14,52,9.80
2018,04,02,14,53,9.80
2018,04,02,14,54,9.80
2018,04,02,14,55,9.80
2018,04,02,14,56,9.80
2018,04,02,14,57,9.80
2018,04,02,14,58,9.80
2018,04,02,14,59,9.80
2018,04,02,15,00,9.80
2018,04,02,15,01,9.70
2018,04,02,15,02,9.70
2018,04,02,15,03,9.70
2018,04,02,15,04,9.70
2018,04,02,15,05,9.80
2018,04,02,15,06,9.80
2018,04,02,15,07,9.90
2018,04,02,15,08,10.00
2018,04,02,15,09,10.00
2018,04,02,15,10,9.90
2018,04,02,15,11,9.80
2018,04,02,15,12,9.70
2018,04,02,15,13,9.70
2018,04,02,15,14,9.70
2018,04,02,15,15,9.70
2018,04,02,15,16,9.80
2018,04,02,15,17,9.80
2018,04,02,15,18,9.90
2018,04,02,15,19,9.90
2018,04,02,15,20,9.80
2018,04,02,15,21,9.80
2018,04,02,15,22,9.80
2018,04,02,15,23,9.80
2018,04,02,15,24,9.80
2018,04,02,15,25,9.90
2018,04,02,15,26,9.90
2018,04,02,15,27,9.80
2018,04,02,15,28,9.80
2018,04,02,15,29,9.80
2018,04,02,15,30,9.80
2018,04,02,15,31,9.80
2018,04,02,15,32,9.80
2018,04,02,15,33,9.80
2018,04,02,15,34,9.80
2018,04,02,15,35,9.80
2018,04,02,15,36,9.80
2018,04,02,15,37,9.70
2018,04,02,15,38,9.70
2018,04,02,15,39,9.70
2018,04,02,15,40,9.70
2018,04,02,15,41,9.70
2018,04,02,15,42,9.70
2018,04,02,15,43,9.70
2018,04,02,15,44,9.70
2018,04,02,15,45,9.80
2018,04,02,15,46,9.80
2018,04,02,15,47,9.90
2018,04,02,15,48,9.90
2018,04,02,15,49,9.90
2018,04,02,15,50,9.80
2018,04,02,15,51,9.80
2018,04,02,15,52,9.70
2018,04,02,15,53,9.70
2018,04,02,15,54,9.70
2018,04,02,15,55,9.70
2018,04,02,15,56,9.70
2018,04,02,15,57,9.70
2018,04,02,15,58,9.70
2018,04,02,15,59,9.70
2018,04,02,16,00,9.70
2018,04,02,16,01,9.80
2018,04,02,16,02,9.80
2018,04,02,16,03,9.80
2018,04,02,16,04,9.80
2018,04,02,16,05,9.80
2018,04,02,16,06,9.80
2018,04,02,16,07,9.80
2018,04,02,16,08,9.80
2018,04,02,16,09,9.80
2018,04,02,16,10,9.80
2018,04,02,16,11,9.80
2018,04,02,16,12,9.90
2018,04,02,16,13,9.90
2018,04,02,16,14,9.80
2018,04,02,16,15,9.80
2018,04,02,16,16,9.60
2018,04,02,16,17,9.60
2018,04,02,16,18,9.60
2018,04,02,16,19,9.60
2018,04,02,16,20,9.60
2018,04,02,16,21,9.60
2018,04,02,16,22,9.70
2018,04,02,16,23,9.70
2018,04,02,16,24,9.70
2018,04,02,16,25,9.70
2018,04,02,16,26,9.70
2018,04,02,16,27,9.70
2018,04,02,16,28,9.70
2018,04,02,16,29,9.60
2018,04,02,16,30,9.60
2018,04,02,16,31,9.60
2018,04,02,16,32,9.60
2018,04,02,16,33,9.60
2018,04,02,16,34,9.60
2018,04,02,16,35,9.60
2018,04,02,16,36,9.70
2018,04,02,16,37,9.70
2018,04,02,16,38,9.70
2018,04,02,16,39,9.70
2018,04,02,16,40,9.70
2018,04,02,16,41,9.70
2018,04,02,16,42,9.70
2018,04,02,16,43,9.70
2018,04,02,16,44,9.70
2018,04,02,16,45,9.70
2018,04,02,16,46,9.70
2018,04,02,16,47,9.70
2018,04,02,16,48,9.70
2018,04,02,16,49,9.70
2018,04,02,16,50,9.70
2018,04,02,16,51,9.70
2018,04,02,16,52,9.70
2018,04,02,16,53,9.80
2018,04,02,16,54,9.80
2018,04,02,16,55,9.80
2018,04,02,16,56,9.90
2018,04,02,16,57,9.90
2018,04,02,16,58,9.90
2018,04,02,16,59,9.90
2018,04,02,17,00,9.80
2018,04,02,17,01,9.80
2018,04,02,17,02,9.80
2018,04,02,17,03,9.80
2018,04,02,17,04,9.80
2018,04,02,17,05,9.70
2018,04,02,17,06,9.70
2018,04,02,17,07,9.70
2018,04,02,17,08,9.70
2018,04,02,17,09,9.70
2018,04,02,17,10,9.70
2018,04,02,17,11,9.70
2018,04,02,17,12,9.70
2018,04,02,17,13,9.80
2018,04,02,17,14,9.70
2018,04,02,17,15,9.70
2018,04,02,17,16,9.80
2018,04,02,17,17,9.80
2018,04,02,17,18,9.90
2018,04,02,17,19,9.90
2018,04,02,17,20,9.90
2018,04,02,17,21,9.80
2018,04,02,17,22,9.90
2018,04,02,17,23,9.90
2018,04,02,17,24,9.80
2018,04,02,17,25,9.80
2018,04,02,17,26,9.80
2018,04,02,17,27,9.80
2018,04,02,17,28,9.80
2018,04,02,17,29,9.80
2018,04,02,17,30,9.80
2018,04,02,17,31,9.80
2018,04,02,17,32,9.90
2018,04,02,17,33,9.90
2018,04,02,17,34,9.80
2018,04,02,17,35,9.80
2018,04,02,17,36,9.70
2018,04,02,17,37,9.70
2018,04,02,17,38,9.70
2018,04,02,17,39,9.60
2018,04,02,17,40,9.50
2018,04,02,17,41,9.50
2018,04,02,17,42,9.40
2018,04,02,17,43,9.30
2018,04,02,17,44,9.10
2018,04,02,17,45,9.10
2018,04,02,17,46,9.00
2018,04,02,17,47,8.90
2018,04,02,17,48,8.80
2018,04,02,17,49,8.80
2018,04,02,17,50,8.70
2018,04,02,17,51,8.70
2018,04,02,17,52,8.70
2018,04,02,17,53,8.60
2018,04,02,17,54,8.60
2018,04,02,17,55,8.60
2018,04,02,17,56,8.50
2018,04,02,17,57,8.50
2018,04,02,17,58,8.50
2018,04,02,17,59,8.50
2018,04,02,18,00,8.50
2018,04,02,18,01,8.50
2018,04,02,18,02,8.50
2018,04,02,18,03,8.40
2018,04,02,18,04,8.40
2018,04,02,18,05,8.40
2018,04,02,18,06,8.40